This is the latest recevied weather packets stored in our database for station/object LU4HH-15. If no packets are shown the sender has not sent any weather packets the latest 10 day(s).
| Time | Temp. | Humidity | Pressure | Rain* | Wind** | Luminosity | Snow |
|---|---|---|---|---|---|---|---|
| 1788645094 | 15° C | 39% | 1033.9 hPa | - | - | - | - |
| 1788643249 | 13.33° C | 42% | 1033.7 hPa | - | - | - | - |
| 1788642348 | 13.33° C | 41% | 1033.6 hPa | - | - | - | - |
| 1788641447 | 13.33° C | 41% | 1033.4 hPa | - | - | - | - |
| 1788640546 | 13.33° C | 41% | 1033.2 hPa | - | - | - | - |
| 1788639645 | 13.89° C | 41% | 1033.1 hPa | - | - | - | - |
| 1788638744 | 13.89° C | 41% | 1032.8 hPa | - | - | - | - |
| 1788637843 | 13.89° C | 41% | 1032.7 hPa | - | - | - | - |
| 1788636942 | 14.44° C | 40% | 1032.5 hPa | - | - | - | - |
| 1788636041 | 14.44° C | 40% | 1032.6 hPa | - | - | - | - |
| 1788635142 | 14.44° C | 40% | 1032.4 hPa | - | - | - | - |
| 1788634238 | 15° C | 39% | 1032.2 hPa | - | - | - | - |
| 1788633338 | 15° C | 39% | 1032.3 hPa | - | - | - | - |
| 1788632436 | 15° C | 38% | 1032.3 hPa | - | - | - | - |
| 1788631535 | 15.56° C | 38% | 1032.4 hPa | - | - | - | - |
| 1788630630 | 15.56° C | 38% | 1032.5 hPa | - | - | - | - |
| 1788629729 | 15.56° C | 38% | 1032.5 hPa | - | - | - | - |
| 1788628828 | 16.11° C | 37% | 1032.6 hPa | - | - | - | - |
| 1788627927 | 16.11° C | 37% | 1032.8 hPa | - | - | - | - |
| 1788627026 | 16.11° C | 37% | 1032.8 hPa | - | - | - | - |
| 1788626155 | 16.11° C | 37% | 1032.9 hPa | - | - | - | - |
| 1788625254 | 15.56° C | 37% | 1032.8 hPa | - | - | - | - |
| 1788624353 | 15.56° C | 37% | 1032.9 hPa | - | - | - | - |
| 1788623452 | 15.56° C | 37% | 1033 hPa | - | - | - | - |
| 1788622551 | 15° C | 36% | 1033 hPa | - | - | - | - |
* Rain since midnight (hover to see other rain measurements)
** Current wind speed in m/s (hover to see current wind gust speed)